QPF
0.01 0.01 0.01 0.00 0.00 0.00 0.00 0.00 0.00 0.00 0.00 0.00 0.00 0.00 0.00 0.00 0.00 0.00 0.00 0.00 0.00 0.00 0.00 0.00 0.00 0.00 0.00 0.00 0.00 0.00 0.00 0.00 0.00 0.00 0.00 0.00 0.01 0.02 0.04 0.05 0.04 0.04 0.04 0.04
0.01 0.01 0.00 0.00 0.00 0.00 0.00 0.00 0.00 0.00 0.00 0.00 0.00 0.00 0.00 0.00 0.00 0.00 0.00 0.00 0.00 0.00 0.00 0.00 0.00 0.00 0.00 0.00 0.00 0.00 0.00 0.00 0.00 0.00 0.00 0.00 0.00 0.02 0.03 0.04 0.05 0.07 0.07 0.06
0.00 0.00 0.00 0.00 0.00 0.00 0.00 0.00 0.00 0.00 0.00 0.00 0.00 0.00 0.00 0.00 0.00 0.00 0.00 0.00 0.00 0.00 0.00 0.00 0.00 0.00 0.00 0.00 0.00 0.00 0.00 0.00 0.00 0.00 0.00 0.00 0.00 0.01 0.01 0.02 0.05 0.06 0.08 0.07
0.00 0.00 0.00 0.00 0.00 0.00 0.00 0.00 0.00 0.00 0.00 0.00 0.00 0.00 0.00 0.00 0.00 0.00 0.00 0.00 0.00 0.00 0.00 0.00 0.00 0.00 0.00 0.00 0.00 0.00 0.00 0.00 0.00 0.00 0.00 0.00 0.00 0.00 0.01 0.03 0.05 0.06 0.06 0.06
0.00 0.00 0.00 0.00 0.00 0.00 0.00 0.00 0.00 0.00 0.00 0.00 0.00 0.00 0.00 0.00 0.00 0.00 0.00 0.00 0.00 0.00 0.00 0.00 0.00 0.00 0.00 0.00 0.00 0.00 0.00 0.00 0.00 0.00 0.00 0.00 0.00 0.00 0.01 0.02 0.03 0.04 0.04 0.04
0.00 0.00 0.00 0.00 0.00 0.00 0.00 0.00 0.00 0.00 0.01 0.00 0.00 0.00 0.00 0.00 0.00 0.00 0.00 0.00 0.00 0.00 0.00 0.00 0.00 0.00 0.00 0.00 0.00 0.00 0.00 0.00 0.00 0.00 0.00 0.00 0.00 0.00 0.01 0.02 0.02 0.03 0.03 0.03
0.00 0.00 0.00 0.00 0.00 0.00 0.00 0.01 0.00 0.00 0.01 0.00 0.00 0.00 0.00 0.00 0.00 0.00 0.00 0.00 0.00 0.00 0.00 0.00 0.00 0.00 0.00 0.00 0.00 0.00 0.00 0.00 0.00 0.00 0.00 0.00 0.00 0.00 0.01 0.02 0.03 0.03 0.03 0.03
0.00 0.00 0.00 0.00 0.00 0.00 0.00 0.01 0.00 0.00 0.00 0.00 0.00 0.00 0.00 0.00 0.00 0.00 0.00 0.00 0.00 0.00 0.00 0.00 0.00 0.00 0.00 0.00 0.00 0.00 0.00 0.00 0.00 0.00 0.00 0.00 0.00 0.00 0.01 0.02 0.03 0.03 0.04 0.04
0.00 0.00 0.00 0.00 0.00 0.00 0.01 0.01 0.00 0.01 0.00 0.00 0.00 0.00 0.00 0.00 0.00 0.00 0.00 0.00 0.00 0.00 0.00 0.00 0.00 0.00 0.00 0.00 0.00 0.00 0.00 0.00 0.00 0.00 0.00 0.00 0.00 0.00 0.01 0.01 0.02 0.02 0.03 0.03
0.00 0.00 0.00 0.00 0.00 0.00 0.00 0.00 0.01 0.02 0.01 0.00 0.00 0.00 0.00 0.00 0.00 0.00 0.00 0.00 0.00 0.00 0.00 0.00 0.00 0.00 0.00 0.00 0.00 0.00 0.00 0.00 0.00 0.00 0.00 0.00 0.00 0.00 0.01 0.01 0.02 0.02 0.02 0.02
0.00 0.00 0.00 0.00 0.00 0.00 0.00 0.00 0.01 0.02 0.01 0.01 0.00 0.00 0.00 0.00 0.00 0.00 0.00 0.00 0.00 0.00 0.00 0.00 0.00 0.00 0.00 0.00 0.00 0.00 0.00 0.00 0.00 0.00 0.00 0.00 0.00 0.00 0.00 0.01 0.01 0.02 0.02 0.01
0.00 0.01 0.00 0.00 0.00 0.00 0.00 0.00 0.01 0.03 0.02 0.02 0.02 0.00 0.00 0.00 0.00 0.00 0.00 0.00 0.00 0.00 0.00 0.00 0.00 0.00 0.00 0.00 0.00 0.00 0.00 0.00 0.00 0.00 0.00 0.00 0.00 0.00 0.00 0.01 0.01 0.01 0.01 0.01
0.00 0.00 0.00 0.00 0.00 0.00 0.00 0.00 0.01 0.04 0.09 0.05 0.04 0.01 0.00 0.00 0.00 0.00 0.00 0.00 0.00 0.00 0.00 0.00 0.00 0.01 0.01 0.01 0.01 0.01 0.00 0.00 0.00 0.00 0.00 0.00 0.00 0.00 0.01 0.01 0.01 0.01 0.01 0.00
0.01 0.00 0.00 0.00 0.01 0.00 0.00 0.00 0.02 0.11 0.16 0.06 0.02 0.00 0.00 0.00 0.01 0.01 0.01 0.01 0.01 0.01 0.01 0.01 0.01 0.01 0.01 0.00 0.00 0.00 0.00 0.00 0.00 0.00 0.00 0.00 0.01 0.01 0.01 0.01 0.01 0.01 0.00 0.00
0.01 0.01 0.00 0.00 0.00 0.00 0.00 0.00 0.02 0.09 0.12 0.13 0.05 0.01 0.01 0.01 0.03 0.03 0.02 0.02 0.02 0.02 0.01 0.01 0.01 0.01 0.01 0.00 0.00 0.00 0.00 0.00 0.00 0.01 0.01 0.01 0.01 0.01 0.01 0.01 0.00 0.00 0.00 0.00
0.01 0.02 0.01 0.00 0.00 0.00 0.00 0.01 0.03 0.05 0.07 0.08 0.05 0.03 0.02 0.03 0.05 0.04 0.03 0.03 0.02 0.02 0.03 0.02 0.02 0.01 0.01 0.00 0.00 0.00 0.00 0.00 0.01 0.01 0.01 0.01 0.01 0.01 0.01 0.00 0.00 0.00 0.00 0.00
0.01 0.02 0.02 0.01 0.00 0.00 0.01 0.03 0.04 0.04 0.05 0.07 0.08 0.06 0.05 0.05 0.06 0.05 0.04 0.03 0.03 0.02 0.01 0.01 0.01 0.01 0.00 0.00 0.00 0.00 0.01 0.01 0.01 0.01 0.01 0.01 0.01 0.01 0.00 0.00 0.00 0.00 0.00 0.00
0.01 0.02 0.04 0.02 0.01 0.01 0.01 0.02 0.03 0.04 0.04 0.07 0.08 0.07 0.06 0.06 0.09 0.08 0.06 0.04 0.03 0.02 0.01 0.01 0.01 0.00 0.00 0.00 0.00 0.01 0.01 0.01 0.01 0.01 0.01 0.01 0.01 0.01 0.01 0.01 0.01 0.01 0.01 0.01
0.01 0.03 0.06 0.03 0.02 0.01 0.01 0.02 0.03 0.05 0.06 0.08 0.06 0.05 0.05 0.06 0.09 0.10 0.09 0.05 0.03 0.02 0.03 0.03 0.02 0.02 0.01 0.01 0.02 0.02 0.02 0.02 0.02 0.03 0.03 0.02 0.02 0.02 0.02 0.02 0.01 0.01 0.01 0.00
0.01 0.03 0.07 0.05 0.04 0.01 0.01 0.01 0.01 0.03 0.06 0.06 0.06 0.06 0.08 0.09 0.10 0.10 0.08 0.07 0.07 0.06 0.04 0.05 0.05 0.06 0.06 0.06 0.06 0.06 0.05 0.06 0.05 0.05 0.04 0.04 0.04 0.03 0.02 0.01 0.01 0.00 0.00 0.00
0.02 0.03 0.05 0.04 0.04 0.01 0.01 0.01 0.01 0.02 0.04 0.02 0.03 0.04 0.06 0.06 0.06 0.07 0.06 0.05 0.07 0.08 0.07 0.07 0.07 0.08 0.09 0.08 0.08 0.07 0.07 0.06 0.06 0.05 0.04 0.02 0.02 0.01 0.01 0.00 0.00 0.00 0.00 0.00
0.01 0.01 0.01 0.02 0.02 0.01 0.00 0.00 0.01 0.01 0.01 0.01 0.02 0.04 0.05 0.06 0.05 0.05 0.06 0.06 0.05 0.04 0.05 0.06 0.06 0.08 0.08 0.09 0.09 0.08 0.07 0.05 0.04 0.03 0.01 0.01 0.00 0.00 0.00 0.00 0.00 0.00 0.00 0.00
0.01 0.01 0.01 0.01 0.00 0.00 0.00 0.00 0.00 0.00 0.01 0.01 0.02 0.03 0.04 0.03 0.04 0.04 0.03 0.03 0.03 0.03 0.03 0.04 0.05 0.05 0.06 0.06 0.07 0.05 0.03 0.02 0.01 0.01 0.01 0.00 0.00 0.00 0.00 0.00 0.00 0.00 0.00 0.00
0.01 0.00 0.00 0.00 0.00 0.00 0.00 0.00 0.00 0.00 0.00 0.00 0.01 0.01 0.04 0.05 0.04 0.04 0.02 0.02 0.02 0.01 0.01 0.02 0.02 0.02 0.02 0.02 0.02 0.01 0.00 0.00 0.00 0.00 0.00 0.00 0.00 0.00 0.00 0.00 0.00 0.00 0.00 0.00
0.01 0.00 0.00 0.00 0.00 0.00 0.00 0.00 0.00 0.00 0.00 0.00 0.00 0.00 0.01 0.02 0.02 0.03 0.02 0.02 0.02 0.01 0.01 0.01 0.00 0.00 0.00 0.00 0.00 0.00 0.00 0.00 0.00 0.00 0.00 0.00 0.00 0.00 0.00 0.00 0.00 0.00 0.00 0.00
0.00 0.00 0.00 0.00 0.00 0.00 0.00 0.00 0.00 0.00 0.00 0.00 0.00 0.00 0.00 0.00 0.00 0.00 0.01 0.00 0.00 0.00 0.00 0.00 0.00 0.00 0.00 0.00 0.00 0.00 0.00 0.00 0.00 0.00 0.00 0.00 0.00 0.00 0.00 0.00 0.00 0.00 0.00 0.00
MSLP
1011.33 1011.64 1011.86 1011.99 1012.04 1012.04 1011.98 1011.89 1011.75 1011.55 1011.28 1010.91 1010.47 1009.94 1009.36 1008.77 1008.19 1007.67 1007.23 1006.86 1006.56 1006.32 1006.10 1005.89 1005.67 1005.47 1005.29 1005.19 1005.19 1005.32 1005.62 1006.07 1006.65 1007.34 1008.07 1008.81 1009.51 1010.16 1010.73 1011.26 1011.76 1012.27 1012.81 1013.40
1011.43 1011.69 1011.87 1012.00 1012.10 1012.16 1012.20 1012.18 1012.09 1011.88 1011.54 1011.05 1010.43 1009.70 1008.93 1008.16 1007.46 1006.88 1006.44 1006.12 1005.92 1005.77 1005.63 1005.47 1005.26 1005.03 1004.79 1004.61 1004.54 1004.62 1004.91 1005.40 1006.07 1006.86 1007.72 1008.58 1009.39 1010.12 1010.76 1011.32 1011.84 1012.35 1012.88 1013.48
1011.46 1011.66 1011.82 1011.97 1012.13 1012.30 1012.44 1012.53 1012.49 1012.28 1011.86 1011.22 1010.40 1009.44 1008.43 1007.46 1006.62 1005.97 1005.52 1005.26 1005.14 1005.10 1005.06 1004.97 1004.79 1004.54 1004.26 1004.02 1003.88 1003.93 1004.21 1004.73 1005.47 1006.37 1007.36 1008.36 1009.30 1010.14 1010.85 1011.45 1011.99 1012.50 1013.03 1013.61
1011.43 1011.56 1011.71 1011.89 1012.14 1012.42 1012.70 1012.89 1012.92 1012.70 1012.20 1011.42 1010.38 1009.18 1007.93 1006.75 1005.75 1005.00 1004.53 1004.32 1004.29 1004.36 1004.43 1004.42 1004.29 1004.05 1003.74 1003.45 1003.26 1003.27 1003.54 1004.09 1004.90 1005.90 1007.01 1008.14 1009.20 1010.14 1010.94 1011.60 1012.16 1012.67 1013.18 1013.74
1011.34 1011.42 1011.56 1011.79 1012.12 1012.53 1012.94 1013.25 1013.34 1013.13 1012.56 1011.63 1010.40 1008.97 1007.48 1006.09 1004.93 1004.09 1003.59 1003.41 1003.46 1003.64 1003.81 1003.89 1003.82 1003.60 1003.28 1002.95 1002.73 1002.70 1002.96 1003.52 1004.38 1005.46 1006.67 1007.90 1009.08 1010.12 1010.99 1011.70 1012.29 1012.81 1013.31 1013.85
1011.21 1011.25 1011.39 1011.67 1012.09 1012.61 1013.15 1013.56 1013.72 1013.52 1012.90 1011.86 1010.46 1008.84 1007.15 1005.58 1004.28 1003.34 1002.81 1002.64 1002.75 1003.01 1003.28 1003.44 1003.43 1003.25 1002.94 1002.59 1002.34 1002.28 1002.52 1003.09 1003.96 1005.08 1006.36 1007.67 1008.93 1010.05 1010.99 1011.75 1012.37 1012.90 1013.40 1013.91
1011.06 1011.08 1011.22 1011.55 1012.04 1012.66 1013.30 1013.80 1014.02 1013.84 1013.18 1012.07 1010.56 1008.79 1006.96 1005.25 1003.84 1002.82 1002.26 1002.10 1002.24 1002.56 1002.90 1003.13 1003.18 1003.04 1002.75 1002.41 1002.14 1002.06 1002.28 1002.82 1003.69 1004.82 1006.12 1007.47 1008.77 1009.93 1010.92 1011.72 1012.38 1012.93 1013.44 1013.95
1010.91 1010.92 1011.08 1011.44 1011.99 1012.67 1013.37 1013.93 1014.19 1014.03 1013.37 1012.21 1010.65 1008.81 1006.90 1005.11 1003.63 1002.57 1001.97 1001.80 1001.96 1002.31 1002.69 1002.97 1003.08 1002.98 1002.72 1002.40 1002.14 1002.05 1002.25 1002.77 1003.60 1004.70 1005.98 1007.32 1008.62 1009.80 1010.81 1011.65 1012.33 1012.92 1013.45 1013.98
1010.76 1010.79 1010.97 1011.35 1011.92 1012.63 1013.35 1013.93 1014.21 1014.05 1013.40 1012.25 1010.68 1008.84 1006.91 1005.11 1003.61 1002.53 1001.91 1001.72 1001.87 1002.22 1002.62 1002.93 1003.08 1003.03 1002.82 1002.55 1002.32 1002.24 1002.43 1002.91 1003.70 1004.75 1005.97 1007.26 1008.53 1009.69 1010.70 1011.56 1012.27 1012.89 1013.46 1014.02
1010.62 1010.68 1010.89 1011.28 1011.85 1012.54 1013.24 1013.79 1014.04 1013.88 1013.23 1012.11 1010.59 1008.80 1006.93 1005.17 1003.70 1002.63 1002.00 1001.79 1001.91 1002.23 1002.62 1002.94 1003.12 1003.13 1003.00 1002.79 1002.62 1002.58 1002.78 1003.25 1003.99 1004.97 1006.11 1007.32 1008.52 1009.64 1010.63 1011.48 1012.22 1012.88 1013.50 1014.11
1010.50 1010.61 1010.84 1011.22 1011.76 1012.38 1013.00 1013.47 1013.66 1013.47 1012.83 1011.75 1010.30 1008.61 1006.84 1005.18 1003.78 1002.75 1002.12 1001.89 1001.97 1002.25 1002.61 1002.94 1003.15 1003.22 1003.17 1003.07 1003.00 1003.04 1003.27 1003.74 1004.45 1005.36 1006.41 1007.52 1008.64 1009.69 1010.64 1011.48 1012.24 1012.94 1013.60 1014.27
1010.40 1010.57 1010.81 1011.17 1011.63 1012.16 1012.65 1012.99 1013.08 1012.82 1012.16 1011.13 1009.77 1008.21 1006.59 1005.07 1003.77 1002.81 1002.20 1001.95 1001.99 1002.22 1002.55 1002.87 1003.11 1003.26 1003.32 1003.35 1003.40 1003.56 1003.87 1004.37 1005.06 1005.90 1006.87 1007.88 1008.90 1009.87 1010.76 1011.59 1012.35 1013.08 1013.79 1014.50
1010.33 1010.54 1010.79 1011.10 1011.47 1011.85 1012.17 1012.35 1012.30 1011.94 1011.27 1010.27 1009.02 1007.61 1006.16 1004.80 1003.64 1002.77 1002.21 1001.95 1001.96 1002.14 1002.43 1002.75 1003.03 1003.27 1003.45 1003.63 1003.83 1004.12 1004.54 1005.09 1005.79 1006.59 1007.48 1008.40 1009.32 1010.20 1011.04 1011.83 1012.59 1013.33 1014.07 1014.81
1010.28 1010.52 1010.76 1011.00 1011.24 1011.46 1011.59 1011.57 1011.36 1010.90 1010.18 1009.23 1008.09 1006.84 1005.58 1004.41 1003.42 1002.67 1002.17 1001.94 1001.92 1002.08 1002.34 1002.66 1002.99 1003.30 1003.62 1003.95 1004.31 1004.75 1005.28 1005.91 1006.62 1007.41 1008.23 1009.06 1009.89 1010.69 1011.46 1012.21 1012.95 1013.69 1014.44 1015.20
1010.24 1010.48 1010.68 1010.84 1010.94 1010.97 1010.90 1010.69 1010.31 1009.75 1009.00 1008.10 1007.08 1006.01 1004.96 1004.01 1003.21 1002.61 1002.21 1002.02 1002.01 1002.15 1002.40 1002.72 1003.08 1003.48 1003.91 1004.37 1004.89 1005.47 1006.11 1006.81 1007.55 1008.32 1009.09 1009.85 1010.59 1011.31 1012.02 1012.72 1013.43 1014.16 1014.90 1015.65
1010.19 1010.39 1010.53 1010.58 1010.53 1010.39 1010.13 1009.74 1009.22 1008.58 1007.82 1006.99 1006.12 1005.25 1004.44 1003.72 1003.14 1002.71 1002.44 1002.33 1002.35 1002.49 1002.73 1003.05 1003.44 1003.89 1004.40 1004.98 1005.61 1006.29 1007.02 1007.78 1008.54 1009.29 1010.02 1010.72 1011.39 1012.04 1012.68 1013.34 1014.01 1014.71 1015.42 1016.14
1010.06 1010.21 1010.25 1010.19 1010.01 1009.71 1009.30 1008.77 1008.16 1007.47 1006.75 1006.03 1005.33 1004.68 1004.12 1003.67 1003.32 1003.09 1002.97 1002.96 1003.03 1003.19 1003.43 1003.74 1004.14 1004.61 1005.17 1005.80 1006.50 1007.25 1008.02 1008.80 1009.56 1010.29 1010.98 1011.62 1012.23 1012.82 1013.41 1014.02 1014.65 1015.30 1015.97 1016.64
1009.82 1009.88 1009.83 1009.66 1009.36 1008.95 1008.43 1007.83 1007.18 1006.52 1005.89 1005.31 1004.81 1004.41 1004.12 1003.93 1003.83 1003.81 1003.86 1003.95 1004.09 1004.28 1004.52 1004.82 1005.20 1005.66 1006.21 1006.84 1007.55 1008.30 1009.07 1009.84 1010.58 1011.27 1011.91 1012.51 1013.07 1013.61 1014.16 1014.72 1015.31 1015.91 1016.53 1017.14
1009.42 1009.38 1009.23 1008.97 1008.60 1008.13 1007.57 1006.97 1006.35 1005.78 1005.27 1004.88 1004.60 1004.46 1004.43 1004.51 1004.65 1004.84 1005.04 1005.25 1005.46 1005.67 1005.91 1006.18 1006.52 1006.94 1007.45 1008.04 1008.70 1009.41 1010.14 1010.86 1011.55 1012.19 1012.79 1013.34 1013.86 1014.37 1014.88 1015.41 1015.95 1016.51 1017.07 1017.61
1008.85 1008.70 1008.48 1008.16 1007.76 1007.28 1006.75 1006.21 1005.70 1005.26 1004.93 1004.74 1004.70 1004.80 1005.01 1005.32 1005.68 1006.04 1006.39 1006.70 1006.97 1007.21 1007.44 1007.68 1007.97 1008.33 1008.77 1009.28 1009.87 1010.50 1011.16 1011.81 1012.44 1013.03 1013.58 1014.10 1014.59 1015.07 1015.56 1016.05 1016.56 1017.07 1017.57 1018.04
1008.12 1007.89 1007.60 1007.27 1006.89 1006.46 1006.03 1005.60 1005.24 1004.98 1004.85 1004.87 1005.04 1005.34 1005.77 1006.26 1006.78 1007.28 1007.74 1008.12 1008.44 1008.70 1008.92 1009.14 1009.38 1009.67 1010.04 1010.47 1010.97 1011.52 1012.09 1012.67 1013.24 1013.78 1014.29 1014.78 1015.25 1015.72 1016.19 1016.66 1017.14 1017.60 1018.04 1018.43
1007.28 1006.99 1006.69 1006.38 1006.06 1005.74 1005.43 1005.18 1005.00 1004.93 1004.99 1005.20 1005.54 1006.01 1006.57 1007.19 1007.81 1008.39 1008.91 1009.34 1009.69 1009.96 1010.18 1010.38 1010.60 1010.85 1011.15 1011.52 1011.95 1012.43 1012.93 1013.45 1013.96 1014.46 1014.94 1015.41 1015.87 1016.33 1016.79 1017.24 1017.68 1018.10 1018.47 1018.79
1006.42 1006.10 1005.81 1005.56 1005.34 1005.16 1005.02 1004.95 1004.97 1005.09 1005.32 1005.67 1006.14 1006.71 1007.34 1008.01 1008.66 1009.27 1009.80 1010.25 1010.61 1010.89 1011.13 1011.33 1011.54 1011.78 1012.07 1012.41 1012.80 1013.23 1013.69 1014.16 1014.64 1015.11 1015.58 1016.03 1016.48 1016.93 1017.37 1017.80 1018.21 1018.58 1018.89 1019.14
1005.63 1005.31 1005.07 1004.90 1004.81 1004.78 1004.83 1004.94 1005.14 1005.42 1005.79 1006.25 1006.79 1007.39 1008.03 1008.68 1009.31 1009.89 1010.40 1010.84 1011.20 1011.50 1011.76 1011.99 1012.23 1012.50 1012.80 1013.15 1013.54 1013.95 1014.40 1014.85 1015.31 1015.77 1016.23 1016.67 1017.11 1017.55 1017.97 1018.36 1018.73 1019.04 1019.29 1019.47
1004.99 1004.70 1004.52 1004.46 1004.50 1004.63 1004.85 1005.13 1005.49 1005.90 1006.37 1006.89 1007.45 1008.04 1008.63 1009.22 1009.78 1010.30 1010.77 1011.18 1011.54 1011.86 1012.16 1012.45 1012.75 1013.08 1013.43 1013.81 1014.23 1014.67 1015.11 1015.57 1016.03 1016.47 1016.92 1017.35 1017.77 1018.18 1018.57 1018.92 1019.24 1019.49 1019.68 1019.79
1004.55 1004.31 1004.21 1004.25 1004.42 1004.70 1005.06 1005.49 1005.97 1006.48 1007.01 1007.56 1008.11 1008.65 1009.18 1009.69 1010.17 1010.62 1011.04 1011.43 1011.79 1012.14 1012.49 1012.85 1013.23 1013.63 1014.05 1014.49 1014.95 1015.41 1015.88 1016.34 1016.79 1017.23 1017.65 1018.06 1018.45 1018.82 1019.16 1019.46 1019.71 1019.91 1020.03 1020.08
Thickness
5564 5564 5568 5577 5583 5591 5596 5596 5600 5613 5625 5622 5624 5632 5642 5652 5657 5661 5666 5670 5674 5680 5688 5694 5698 5701 5703 5705 5706 5706 5703 5703 5699 5693 5688 5683 5678 5676 5674 5673 5671 5666 5660 5655
5555 5559 5573 5583 5586 5586 5586 5585 5590 5600 5612 5613 5617 5628 5640 5651 5659 5664 5666 5669 5673 5677 5682 5687 5691 5694 5696 5698 5700 5700 5699 5698 5696 5692 5687 5681 5673 5667 5665 5664 5661 5658 5653 5647
5555 5564 5574 5577 5577 5575 5576 5577 5582 5588 5595 5602 5605 5623 5644 5664 5668 5669 5670 5671 5672 5674 5676 5679 5682 5686 5688 5690 5692 5693 5693 5692 5690 5687 5680 5670 5661 5655 5651 5650 5648 5646 5642 5638
5552 5564 5566 5568 5569 5570 5569 5581 5582 5581 5577 5584 5596 5596 5638 5653 5661 5665 5666 5667 5668 5670 5672 5673 5675 5677 5680 5684 5685 5686 5686 5685 5684 5681 5674 5666 5659 5652 5647 5643 5638 5635 5632 5628
5551 5559 5559 5559 5565 5569 5570 5573 5571 5571 5569 5568 5583 5579 5625 5645 5648 5655 5659 5661 5662 5663 5664 5665 5666 5669 5672 5674 5676 5678 5678 5677 5676 5674 5669 5661 5654 5647 5639 5633 5628 5625 5621 5619
5554 5559 5560 5560 5565 5568 5568 5563 5561 5562 5559 5557 5580 5581 5614 5638 5647 5650 5652 5652 5652 5652 5652 5653 5655 5658 5659 5662 5663 5666 5668 5667 5666 5663 5660 5654 5647 5639 5631 5625 5620 5616 5612 5610
5544 5550 5555 5559 5556 5557 5557 5548 5546 5551 5550 5561 5586 5592 5615 5639 5643 5640 5637 5638 5637 5636 5635 5635 5638 5639 5643 5646 5649 5652 5655 5655 5655 5653 5649 5645 5639 5633 5627 5621 5616 5611 5606 5602
5537 5546 5553 5554 5553 5550 5549 5547 5542 5548 5560 5576 5592 5593 5617 5636 5637 5634 5630 5626 5622 5619 5617 5618 5620 5621 5625 5630 5634 5638 5640 5642 5642 5641 5638 5634 5628 5623 5619 5614 5610 5605 5601 5596
5542 5547 5557 5555 5553 5552 5544 5541 5548 5542 5543 5541 5566 5590 5612 5624 5622 5619 5614 5609 5604 5601 5601 5601 5602 5604 5607 5612 5618 5623 5627 5628 5629 5628 5625 5621 5617 5614 5610 5605 5600 5597 5592 5587
5546 5542 5548 5549 5546 5544 5547 5545 5536 5524 5516 5530 5562 5580 5592 5604 5603 5602 5597 5591 5589 5587 5585 5585 5585 5586 5590 5595 5602 5609 5613 5615 5616 5616 5614 5610 5606 5603 5600 5596 5592 5588 5583 5579
5542 5535 5539 5539 5537 5538 5536 5534 5534 5530 5531 5523 5536 5569 5602 5594 5591 5585 5581 5578 5575 5572 5569 5567 5567 5569 5572 5577 5584 5592 5597 5601 5602 5602 5600 5596 5594 5591 5589 5586 5582 5578 5574 5570
5538 5531 5530 5537 5544 5546 5541 5536 5529 5514 5519 5525 5524 5558 5590 5586 5582 5575 5569 5566 5562 5559 5556 5552 5551 5553 5555 5560 5567 5575 5581 5586 5588 5587 5585 5583 5580 5579 5578 5575 5571 5568 5564 5560
5536 5525 5518 5532 5536 5540 5539 5539 5535 5525 5518 5518 5520 5552 5580 5576 5570 5564 5557 5552 5548 5545 5542 5538 5537 5537 5539 5545 5550 5558 5565 5570 5572 5572 5570 5568 5568 5568 5567 5564 5561 5557 5554 5549
5536 5524 5520 5533 5535 5536 5532 5534 5534 5522 5516 5521 5532 5551 5564 5560 5557 5553 5547 5541 5536 5532 5528 5524 5523 5524 5527 5532 5537 5544 5550 5555 5556 5556 5556 5556 5557 5558 5557 5554 5550 5547 5543 5538
5528 5523 5525 5530 5537 5539 5538 5538 5537 5530 5526 5525 5540 5545 5555 5554 5550 5545 5540 5534 5528 5523 5519 5514 5512 5512 5515 5519 5523 5529 5534 5539 5541 5543 5545 5547 5547 5548 5547 5543 5539 5535 5531 5525
5523 5522 5527 5531 5540 5544 5546 5549 5548 5544 5541 5539 5542 5548 5555 5552 5548 5541 5534 5526 5521 5517 5512 5507 5504 5503 5505 5508 5512 5516 5521 5526 5530 5533 5535 5538 5539 5538 5536 5532 5528 5523 5517 5512
5521 5521 5521 5529 5546 5548 5548 5559 5555 5551 5551 5546 5546 5551 5553 5550 5544 5532 5525 5519 5514 5510 5507 5502 5498 5497 5498 5500 5505 5509 5513 5518 5521 5524 5527 5529 5529 5528 5525 5521 5516 5511 5505 5499
5524 5523 5520 5525 5535 5540 5560 5565 5560 5554 5555 5553 5551 5552 5552 5548 5538 5525 5517 5514 5512 5509 5504 5498 5494 5493 5494 5496 5500 5504 5507 5511 5514 5516 5518 5520 5519 5517 5514 5509 5504 5499 5493 5488
5527 5523 5520 5522 5531 5545 5563 5564 5559 5554 5556 5557 5552 5554 5553 5551 5544 5527 5513 5510 5508 5505 5501 5496 5492 5491 5492 5495 5498 5501 5502 5504 5506 5508 5509 5510 5509 5507 5503 5498 5492 5488 5482 5476
5527 5522 5517 5522 5528 5540 5562 5565 5564 5555 5557 5558 5554 5553 5550 5550 5548 5525 5509 5505 5500 5498 5496 5492 5491 5491 5491 5492 5494 5496 5497 5498 5499 5500 5501 5500 5499 5497 5492 5487 5481 5476 5471 5465
5523 5520 5520 5523 5528 5544 5566 5567 5564 5555 5558 5559 5556 5551 5546 5537 5526 5514 5508 5503 5498 5494 5492 5491 5490 5489 5488 5489 5491 5491 5491 5491 5492 5494 5494 5492 5489 5485 5480 5475 5470 5465 5460 5455
5532 5529 5529 5530 5531 5543 5568 5566 5561 5559 5561 5558 5553 5547 5538 5527 5519 5513 5508 5503 5499 5495 5492 5490 5489 5487 5486 5486 5486 5486 5485 5486 5487 5486 5484 5480 5477 5474 5469 5464 5458 5454 5449 5443
5544 5545 5545 5545 5549 5565 5569 5566 5562 5558 5555 5552 5547 5542 5534 5525 5518 5512 5507 5503 5500 5498 5495 5492 5490 5488 5485 5484 5484 5484 5482 5482 5481 5478 5475 5471 5467 5462 5457 5452 5447 5443 5438 5432
5553 5555 5551 5552 5560 5567 5566 5561 5555 5551 5547 5544 5543 5539 5533 5523 5515 5509 5505 5501 5499 5496 5494 5492 5490 5488 5484 5482 5481 5480 5478 5476 5474 5470 5465 5461 5456 5451 5447 5442 5436 5431 5425 5418
5552 5551 5549 5552 5561 5565 5556 5554 5550 5545 5542 5539 5536 5534 5527 5520 5513 5508 5503 5499 5497 5495 5492 5490 5487 5484 5480 5477 5475 5473 5471 5469 5465 5460 5455 5450 5446 5441 5436 5431 5425 5420 5413 5407
5551 5552 5551 5555 5560 5560 5553 5549 5545 5540 5536 5532 5529 5525 5521 5516 5510 5505 5500 5496 5493 5490 5487 5483 5480 5477 5474 5471 5468 5465 5463 5461 5457 5450 5444 5439 5435 5430 5425 5420 5414 5410 5404 5399